Retour au catalogue

ARIANE 5 R/B

ActifGTO
NORAD 28913·ROCKET BODY·🇫🇷 France

Lancé Dec 21, 2005 depuis Guiana Space Centre

Loading…

TLE

VieillissantSource: Space-Track

Époque: Sep 14, 2026, 15:24 UTC

1 28913U 05049C   26257.64185516 -.00000088  00000-0  13718-2 0  9998
2 28913   4.0105 285.7378 7147921  39.7029 127.6370  2.24899561170400

Suivez ARIANE 5 R/B en temps réel avec AllMySat

Download on the App Store